Weather History for Cheyenne, WY

Change the Weather History Date:

Monday, April 29, 2013

  Actual Average Record
Temperature  
Mean Temperature 54 °F 47 °F  
Max Temperature 72 °F 59 °F 80 °F (2007)
Min Temperature 36 °F 35 °F 9 °F (1877)
Degree Days  
Heating Degree Days 11 18  
Month to date heating degree days 845 647  
Since 1 July heating degree days 6708 6567  
Cooling Degree Days 0 0  
Month to date cooling degree days 0 0  
Year to date cooling degree days 0 0  
Growing Degree Days 7 (Base 50)    
Moisture  
Dew Point 23 °F    
Average Humidity 44    
Maximum Humidity 76    
Minimum Humidity 11    
Precipitation  
Precipitation 0.00 in 0.07 in 1.46 in (1900)
Month to date precipitation 2.10 1.71  
Year to date precipitation 3.61 3.56  
Snow  
Snow 0.00 in 0.20 in 6.80 in (1900)
Month to date snowfall 30.3 10.0  
Since 1 July snowfall 75.5 57.8  
Snow Depth 0.00 in    
Sea Level Pressure  
Sea Level Pressure 29.60 in    
Wind  
Wind Speed 14 mph (West)    
Max Wind Speed 35 mph    
Max Gust Speed 44 mph    
Visibility 10 miles    
Events      
T = Trace of Precipitation, MM = Missing Value Source: NWS Daily Summary

Daily Weather History Graph

Daily Weather History Graph

Search for Another Location

Airport:

Trip Planner

Search our weather history database for the weather conditions in past years. The results will help you decide how hot, cold, wet, or windy it might be!

Date:

Astronomy

Apr. 29, 2013 Rise Set
Actual Time 5:59 AM MDT 7:54 PM MDT
Civil Twilight 5:29 AM MDT 8:24 PM MDT
Nautical Twilight 4:53 AM MDT 9:00 PM MDT
Astronomical Twilight 4:13 AM MDT 9:40 PM MDT
Moon No Moon Rise 9:21 AM MDT (4/29)
Length of Visible Light 14h 54m
Length of Day
13h 55m
Waning Gibbous, 79% of the Moon is Illuminated
Apr 29
Waning Gibbous
May 2
Last Quarter
May 9
New
May 17
First Quarter
May 24
Full

Hourly Weather History & Observations

Time (MDT) Temp. Windchill Dew Point Humidity Pressure Visibility Wind Dir Wind Speed Gust Speed Precip Events Conditions
12:53 AM 48.9 °F - 32.0 °F 52% 29.77 in 10.0 mi NNW 12.7 mph - N/A   Scattered Clouds
1:53 AM 44.1 °F 39.0 °F 32.0 °F 63% 29.78 in 10.0 mi NW 9.2 mph - N/A   Clear
2:53 AM 39.9 °F 34.5 °F 32.0 °F 73% 29.78 in 10.0 mi West 8.1 mph - N/A   Clear
3:53 AM 37.9 °F 30.9 °F 30.9 °F 76% 29.76 in 10.0 mi West 10.4 mph - N/A   Clear
4:53 AM 37.0 °F 31.0 °F 30.9 °F 79% 29.75 in 10.0 mi West 8.1 mph - N/A   Clear
5:53 AM 42.1 °F 36.6 °F 32.0 °F 67% 29.72 in 10.0 mi WSW 9.2 mph - N/A   Clear
6:53 AM 46.0 °F 41.0 °F 34.0 °F 63% 29.70 in 10.0 mi SSW 10.4 mph - N/A   Clear
7:53 AM 51.1 °F - 34.0 °F 52% 29.69 in 10.0 mi South 10.4 mph - N/A   Clear
8:53 AM 57.0 °F - 32.0 °F 39% 29.67 in 10.0 mi South 12.7 mph - N/A   Clear
9:53 AM 60.1 °F - 23.0 °F 24% 29.66 in 10.0 mi West 19.6 mph 28.8 mph N/A   Clear
10:53 AM 66.0 °F - 14.0 °F 13% 29.62 in 10.0 mi West 31.1 mph 43.7 mph N/A   Clear
11:53 AM 69.1 °F - 15.1 °F 13% 29.58 in 10.0 mi West 27.6 mph 36.8 mph N/A   Clear
12:53 PM 69.1 °F - 12.0 °F 11% 29.57 in 10.0 mi WNW 19.6 mph 32.2 mph N/A   Clear
1:53 PM 69.1 °F - 12.9 °F 11% 29.55 in 10.0 mi West 21.9 mph 29.9 mph N/A   Clear
2:53 PM 71.1 °F - 16.0 °F 12% 29.54 in 10.0 mi West 25.3 mph 33.4 mph N/A   Clear
3:53 PM 70.0 °F - 19.0 °F 14% 29.53 in 10.0 mi WSW 21.9 mph 28.8 mph N/A   Clear
4:53 PM 68.0 °F - 19.0 °F 15% 29.52 in 10.0 mi West 26.5 mph 34.5 mph N/A   Clear
5:53 PM 66.9 °F - 18.0 °F 15% 29.50 in 10.0 mi WSW 13.8 mph 25.3 mph N/A   Clear
6:53 PM 66.0 °F - 17.1 °F 15% 29.49 in 10.0 mi West 17.3 mph 26.5 mph N/A   Clear
7:53 PM 63.0 °F - 19.0 °F 18% 29.49 in 10.0 mi WSW 8.1 mph - N/A   Clear
8:53 PM 62.1 °F - 19.0 °F 19% 29.48 in 10.0 mi Calm Calm - N/A   Clear
9:53 PM 57.0 °F - 21.0 °F 25% 29.49 in 10.0 mi WSW 9.2 mph - N/A   Clear
10:53 PM 57.0 °F - 21.0 °F 25% 29.49 in 10.0 mi NW 9.2 mph - N/A   Clear
11:53 PM 50.0 °F - 25.0 °F 38% 29.50 in 10.0 mi West 10.4 mph - N/A   Clear